When you browse on this site, cookies collect data to enhance your experience and personalize the content and advertising you see.
Visit our Privacy Policy to learn more. By continuing to use the site, you agree to this use of cookies and data.
  • In Hungary
  • List of Countries
  • For 7 days
  • Water Temperature
  • Satellite Maps
  • Weather Map
  • News
  • Weather Widgets
  • user-avatar
    Login

    Hourly Weather Kozlovcy

    Today, 17 January, Thursday

    Time Temperature Precipitation Wind Pressure Humidity
    00:00 -10°C° 0 mm 3 mps 722 mmHg 92%
    01:00 -13°C° 0 mm 3 mps 722 mmHg 94%
    02:00 -13°C° 0 mm 2 mps 722 mmHg 96%
    03:00 -13°C° 0 mm 2 mps 722 mmHg 96%
    04:00 -14°C° 0 mm 3 mps 722 mmHg 96%
    05:00 -13°C° 0 mm 3 mps 722 mmHg 96%
    06:00 -12°C° 0.1 mm 4 mps 721 mmHg 94%
    07:00 -12°C° 0.1 mm 4 mps 720 mmHg 93%
    08:00 -12°C° 0 mm 5 mps 719 mmHg 92%
    09:00 -10°C° 0.5 mm 5 mps 719 mmHg 91%
    10:00 -9°C° 0.5 mm 6 mps 718 mmHg 91%
    11:00 -8°C° 0.5 mm 6 mps 718 mmHg 90%
    12:00 -6°C° 0.3 mm 6 mps 717 mmHg 89%
    13:00 -4°C° 0.3 mm 7 mps 717 mmHg 88%
    14:00 -3°C° 0.3 mm 7 mps 716 mmHg 86%
    15:00 -3°C° 0.2 mm 7 mps 716 mmHg 87%
    16:00 -3°C° 0.2 mm 6 mps 715 mmHg 87%
    17:00 -3°C° 0.2 mm 6 mps 715 mmHg 87%
    18:00 -2°C° 0.5 mm 6 mps 714 mmHg 87%
    19:00 -2°C° 0.5 mm 6 mps 714 mmHg 87%
    20:00 -2°C° 0.5 mm 6 mps 714 mmHg 87%
    21:00 -2°C° 0.2 mm 6 mps 714 mmHg 87%
    22:00 -2°C° 0.2 mm 6 mps 714 mmHg 87%
    23:00 -2°C° 0.2 mm 6 mps 715 mmHg 86%

    Tomorrow, 18 January, Friday

    Time Temperature Precipitation Wind Pressure Humidity
    00:00 -2°C° 0.3 mm 6 mps 716 mmHg 87%
    01:00 -2°C° 0.3 mm 6 mps 716 mmHg 87%
    02:00 -1°C° 0.3 mm 5 mps 717 mmHg 88%
    03:00 -2°C° 0.2 mm 5 mps 717 mmHg 87%
    04:00 -2°C° 0.2 mm 5 mps 718 mmHg 87%
    05:00 -2°C° 0.2 mm 5 mps 718 mmHg 86%
    06:00 -3°C° 0.1 mm 4 mps 719 mmHg 88%
    07:00 -4°C° 0.1 mm 4 mps 719 mmHg 89%
    08:00 -6°C° 0.1 mm 3 mps 720 mmHg 91%
    09:00 -6°C° 0.1 mm 3 mps 721 mmHg 91%
    10:00 -6°C° 0.1 mm 3 mps 721 mmHg 91%
    11:00 -5°C° 0.1 mm 2 mps 722 mmHg 91%
    12:00 -5°C° 0.1 mm 2 mps 722 mmHg 92%
    13:00 -3°C° 0.1 mm 1 mps 722 mmHg 92%
    14:00 -4°C° 0.1 mm 1 mps 722 mmHg 93%
    15:00 -4°C° 0.5 mm 1 mps 721 mmHg 94%
    16:00 -7°C° 0.5 mm 2 mps 721 mmHg 95%
    17:00 -7°C° 0.5 mm 2 mps 721 mmHg 96%
    18:00 -9°C° 1 mm 3 mps 720 mmHg 95%
    19:00 -9°C° 1 mm 3 mps 720 mmHg 94%
    20:00 -9°C° 1 mm 3 mps 720 mmHg 94%
    21:00 -10°C° 0.2 mm 3 mps 721 mmHg 93%
    22:00 -10°C° 0.2 mm 3 mps 722 mmHg 93%
    23:00 -10°C° 0.2 mm 3 mps 723 mmHg 92%

    Day after tomorrow, 19 January, Saturday

    Time Temperature Precipitation Wind Pressure Humidity
    00:00 -12°C° 0 mm 3 mps 723 mmHg 93%
    01:00 -12°C° 0 mm 3 mps 724 mmHg 94%
    02:00 -13°C° 0 mm 3 mps 725 mmHg 95%
    03:00 -12°C° 0 mm 3 mps 725 mmHg 93%
    04:00 -11°C° 0 mm 4 mps 726 mmHg 92%
    05:00 -10°C° 0 mm 4 mps 726 mmHg 90%
    06:00 -10°C° 0 mm 4 mps 726 mmHg 90%
    07:00 -10°C° 0 mm 4 mps 727 mmHg 90%
    08:00 -10°C° 0 mm 4 mps 727 mmHg 90%
    09:00 -10°C° 0 mm 4 mps 727 mmHg 90%
    10:00 -9°C° 0 mm 4 mps 728 mmHg 90%
    11:00 -10°C° 0 mm 5 mps 728 mmHg 89%
    12:00 -10°C° 0.1 mm 5 mps 728 mmHg 89%
    13:00 -8°C° 0.1 mm 5 mps 728 mmHg 88%
    14:00 -8°C° 0.1 mm 5 mps 728 mmHg 87%
    15:00 -8°C° 0.1 mm 4 mps 728 mmHg 88%
    16:00 -9°C° 0.1 mm 4 mps 729 mmHg 89%
    17:00 -9°C° 0.1 mm 4 mps 729 mmHg 90%
    18:00 -9°C° 0 mm 4 mps 729 mmHg 90%
    19:00 -9°C° 0 mm 4 mps 730 mmHg 90%
    20:00 -8°C° 0 mm 4 mps 730 mmHg 89%
    21:00 -8°C° 0 mm 4 mps 730 mmHg 90%
    22:00 -8°C° 0 mm 4 mps 730 mmHg 90%
    23:00 -8°C° 0 mm 4 mps 731 mmHg 90%

    20 January, Sunday

    Time Temperature Precipitation Wind Pressure Humidity
    00:00 -9°C° 0 mm 4 mps 731 mmHg 91%
    01:00 -9°C° 0 mm 4 mps 731 mmHg 91%
    02:00 -10°C° 0 mm 4 mps 731 mmHg 92%
    03:00 -10°C° 0 mm 4 mps 731 mmHg 92%
    04:00 -10°C° 0 mm 4 mps 730 mmHg 92%
    05:00 -10°C° 0 mm 4 mps 730 mmHg 92%
    06:00 -10°C° 0 mm 4 mps 730 mmHg 92%
    07:00 -9°C° 0 mm 4 mps 730 mmHg 92%
    08:00 -9°C° 0 mm 4 mps 730 mmHg 92%
    09:00 -8°C° 0.2 mm 5 mps 729 mmHg 91%
    10:00 -7°C° 0.2 mm 5 mps 729 mmHg 89%
    11:00 -6°C° 0.2 mm 6 mps 728 mmHg 87%
    12:00 -6°C° 0.4 mm 6 mps 728 mmHg 88%
    13:00 -6°C° 0.4 mm 6 mps 728 mmHg 89%
    14:00 -6°C° 0.4 mm 6 mps 727 mmHg 89%
    15:00 -7°C° 0.4 mm 5 mps 727 mmHg 91%
    16:00 -7°C° 0.4 mm 4 mps 728 mmHg 92%
    17:00 -7°C° 0.4 mm 3 mps 728 mmHg 93%
    18:00 -8°C° 0.1 mm 3 mps 728 mmHg 93%
    19:00 -9°C° 0.1 mm 3 mps 728 mmHg 94%
    20:00 -8°C° 0.1 mm 2 mps 728 mmHg 95%
    21:00 -10°C° 0 mm 2 mps 728 mmHg 96%
    22:00 -12°C° 0 mm 2 mps 729 mmHg 97%
    23:00 -13°C° 0 mm 2 mps 729 mmHg 98%

    21 January, Monday

    Time Temperature Precipitation Wind Pressure Humidity
    00:00 -13°C° 0 mm 2 mps 729 mmHg 98%
    01:00 -11°C° 0 mm 1 mps 729 mmHg 98%
    02:00 -11°C° 0 mm 1 mps 729 mmHg 98%
    03:00 -11°C° 0.1 mm 1 mps 729 mmHg 98%
    04:00 -11°C° 0.1 mm 1 mps 729 mmHg 98%
    05:00 -10°C° 0.1 mm 1 mps 729 mmHg 98%
    06:00 -10°C° 0.2 mm 1 mps 729 mmHg 97%
    07:00 -10°C° 0.2 mm 1 mps 729 mmHg 97%
    08:00 -10°C° 0.2 mm 1 mps 729 mmHg 97%
    09:00 -12°C° 0 mm 2 mps 730 mmHg 95%
    10:00 -12°C° 0 mm 2 mps 730 mmHg 94%
    11:00 -13°C° 0 mm 3 mps 730 mmHg 92%
    12:00 -13°C° 0.1 mm 3 mps 730 mmHg 91%
    13:00 -13°C° 0.1 mm 3 mps 730 mmHg 89%
    14:00 -13°C° 0.1 mm 3 mps 730 mmHg 87%
    15:00 -14°C° 0 mm 3 mps 730 mmHg 89%
    16:00 -15°C° 0 mm 3 mps 731 mmHg 91%
    17:00 -15°C° 0 mm 2 mps 731 mmHg 93%
    18:00 -16°C° 0 mm 2 mps 731 mmHg 95%
    19:00 -16°C° 0 mm 2 mps 731 mmHg 96%
    20:00 -17°C° 0 mm 2 mps 731 mmHg 97%
    21:00 -16°C° 0 mm 2 mps 731 mmHg 97%
    22:00 -16°C° 0 mm 2 mps 731 mmHg 97%
    23:00 -15°C° 0 mm 2 mps 731 mmHg 96%

    22 January, Tuesday

    Time Temperature Precipitation Wind Pressure Humidity
    00:00 -15°C° 0 mm 2 mps 731 mmHg 96%
    01:00 -15°C° 0 mm 2 mps 731 mmHg 96%
    02:00 -14°C° 0 mm 2 mps 731 mmHg 96%
    03:00 -14°C° 0 mm 2 mps 731 mmHg 96%
    04:00 -14°C° 0 mm 2 mps 731 mmHg 96%
    05:00 -14°C° 0 mm 2 mps 731 mmHg 96%
    06:00 -15°C° 0 mm 2 mps 731 mmHg 96%
    07:00 -16°C° 0 mm 2 mps 731 mmHg 97%
    08:00 -17°C° 0 mm 2 mps 731 mmHg 97%
    09:00 -16°C° 0 mm 2 mps 732 mmHg 95%
    10:00 -16°C° 0 mm 3 mps 732 mmHg 94%
    11:00 -15°C° 0 mm 3 mps 732 mmHg 92%
    12:00 -15°C° 0.1 mm 3 mps 733 mmHg 91%
    13:00 -14°C° 0.1 mm 3 mps 733 mmHg 89%
    14:00 -14°C° 0.1 mm 3 mps 733 mmHg 87%
    15:00 -15°C° 0 mm 3 mps 733 mmHg 89%
    16:00 -15°C° 0 mm 2 mps 733 mmHg 92%
    17:00 -17°C° 0 mm 2 mps 733 mmHg 94%
    18:00 -18°C° 0 mm 2 mps 734 mmHg 96%
    19:00 -18°C° 0 mm 2 mps 734 mmHg 97%
    20:00 -19°C° 0 mm 2 mps 734 mmHg 98%
    21:00 -18°C° 0 mm 1 mps 734 mmHg 99%
    22:00 -19°C° 0 mm 1 mps 734 mmHg 99%
    23:00 -21°C° 0 mm 1 mps 735 mmHg 99%
    Show more